Location: Betra
(48.4113°N, 8.6634°E)
Time: 16:09:57
(UTC+00:00)

Cosmos 1850 Rocket - Pass Details

Date: 19 August 2024
Orbit: 751 x 783 km, 74.0° (Epoch: 17 September)

Event Time Altitude Azimuth Distance (km) Brightness Sun altitude
Rises 19:58:41 0° 321° (NW) 3,270 9.0 -13.5°
Reaches altitude 10° 20:02:17 10° 296° (WNW) 2,341 7.9 -14.0°
Maximum altitude 20:04:48 14° 267° (W) 2,095 7.0 -14.3°
Drops below altitude 10° 20:07:20 10° 239° (WSW) 2,337 6.8 -14.7°
Sets 20:10:56 0° 214° (SSW) 3,260 7.2 -15.1°
